SKYSAT-C4

Last updated on Mon Sep 07 2026 00:02:45 GMT+0000 (Coordinated Universal Time)

1 41771U 16058B 26249.55825791 .00011338 00000+0 19724-3 0 9996 2 41771 96.9169 268.0467 0001250 41.9612 318.1737 15.50935161558077
UTC large
Height (km)
Speed (km/s)
/
Latitude / Longitude
Inclination (degrees)
Orbital Period (minutes)
Azimuth
Elevation
Range (km)
Doppler Factor

Next 0 passes for location: London (51.5072 / 0.1276)

No passes found over London.
SKYSAT-C4